Regional Weather Roundup
Issued by NWS

Home | Current Version | Previous Version | Graphics & Text | Print | Product List | Glossary On
Versions: 1 2 3 4 5 6 7 8 9 10 11 12 13 14 15 16 17 18 19 20 21 22 23 24 25 26 27 28 29 30 31 32 33 34 35 36 37 38 39 40 41 42 43 44 45 46 47 48 49 50
886
ASUS43 KOAX 120202
RWRNE

WEATHER ROUNDUP FOR NEBRASKA
NATIONAL WEATHER SERVICE OMAHA NE
800 PM CST THU FEB 11 2016

NOTES: SATELLITE DATA IS BEING USED TO AUGMENT CLOUD COVER ABOVE
       12000 FEET.
       "FAIR" INDICATES FEW OR NO CLOUDS BELOW 12,000 FEET WITH NO
       SIGNIFICANT WEATHER AND/OR OBSTRUCTIONS TO VISIBILITY.

  * THESE STATIONS DO NOT REPORT WEATHER SUCH AS RAIN...SNOW OR FOG.

NEZ001>004-019>022-054>056-120300-
NEBRASKA PANHANDLE

CITY           SKY/WX    TMP DP  RH WIND       PRES   REMARKS
SCOTTSBLUFF    CLOUDY    41  26  55 CALM      30.20R
ALLIANCE       CLOUDY    41  27  57 NW13      30.16R
CHADRON        CLOUDY    39  26  59 NW5       30.18R
KIMBALL        CLOUDY    37  27  69 NW10      30.23R WCI  29
SIDNEY         CLOUDY    37  29  72 NW10      30.20R WCI  30
$$

NEZ057>060-069>072-079>082-120300-
SOUTHWEST NEBRASKA

CITY           SKY/WX    TMP DP  RH WIND       PRES   REMARKS
NORTH PLATTE   CLEAR     35  27  72 N6        30.12R WCI  30
IMPERIAL       CLOUDY    45  31  58 NW14      30.16R
LEXINGTON      CLOUDY    32  29  88 W3        30.12R
MCCOOK         CLOUDY    37  31  78 W7        30.13R WCI  32
$$

NEZ005>010-023>029-035>040-094-120300-
NORTH CENTRAL NEBRASKA

CITY           SKY/WX    TMP DP  RH WIND       PRES   REMARKS
VALENTINE      CLOUDY    31  28  89 NE10      30.16R WCI  22
AINSWORTH      CLEAR     31  28  89 N6        30.15R WCI  25
BROKEN BOW     CLOUDY    39  31  72 N14       30.11R WCI  31
ORD            CLEAR     29  27  92 N6        30.10R WCI  23
$$

NEZ041-046>049-061>064-073>077-083>087-120300-
SOUTH CENTRAL NEBRASKA

CITY           SKY/WX    TMP DP  RH WIND       PRES   REMARKS
HASTINGS       CLEAR     32  28  85 SW9       30.10F WCI  24
HEBRON         PTCLDY    29  26  89 CALM      30.15S
KEARNEY *      CLOUDY    34  30  86 SW12      30.11S WCI  25
YORK           PTCLDY    27  27 100 S8        30.14F FOG     WCI  18
$$

NEZ011>018-030>034-042>045-120300-
NORTHEAST NEBRASKA

CITY           SKY/WX    TMP DP  RH WIND       PRES   REMARKS
NORFOLK        CLOUDY    26  22  84 SE9       30.14S FOG     WCI  17
BLAIR          CLOUDY    24  20  83 NE6       30.18R WCI  17
COLUMBUS *     CLOUDY    28  18  64 SE6       30.16R WCI  22
FREMONT        CLOUDY    27  22  80 CALM      30.19S
TEKAMAH        LGT SNOW  20  18  92 E6        30.21S FOG     WCI  12
$$

NEZ050>053-065>068-078-088>093-120300-
SOUTHEAST NEBRASKA

CITY           SKY/WX    TMP DP  RH WIND       PRES   REMARKS
LINCOLN        CLOUDY    29  24  82 CALM      30.19S
OMAHA EPPLEY   CLOUDY    26  19  74 N7        30.21R WCI  18
BEATRICE       PTCLDY    28  25  88 CALM      30.17S
FALLS CITY     PTCLDY    31  21  66 SE6       30.19R WCI  25
NEBRASKA CITY  PTCLDY    29  24  80 CALM      30.17F
PLATTSMOUTH    CLOUDY    29  23  79 CALM      30.18F
$$

NEZ044-045-051>053-067-120300-
OMAHA AREA

CITY           SKY/WX    TMP DP  RH WIND       PRES   REMARKS
OMAHA EPPLEY   CLOUDY    26  19  74 N7        30.21R WCI  18
BLAIR          CLOUDY    24  20  83 NE6       30.18R WCI  17
FREMONT        CLOUDY    27  22  80 CALM      30.19S
OFFUTT AFB     CLOUDY    30  22  73 SW2       30.19F
PLATTSMOUTH    CLOUDY    29  23  79 CALM      30.18F
WAHOO          CLOUDY    28  24  85 SE3       30.19R
$$




USA.gov is the U.S. government's official web portal to all federal, state and local government web resources and services.